Regional Weather Roundup
Issued by NWS

Home | Current Version | Previous Version | Graphics & Text | Print | Product List | Glossary On
Versions: 1 2 3 4 5 6 7 8 9 10 11 12 13 14 15 16 17 18 19 20 21 22 23 24 25 26 27 28 29 30 31 32 33 34 35 36 37 38 39 40 41 42 43 44 45 46 47 48 49 50
000
ASUS45 KTFX 251010
RWRMT
MONTANA REGIONAL WEATHER ROUNDUP
NATIONAL WEATHER SERVICE GREAT FALLS MT
400 AM MDT WED MAY 25 2016

NOTE: "FAIR" INDICATES FEW OR NO CLOUDS BELOW 12000 FEET WITH NO
SIGNIFICANT WEATHER AND/OR OBSTRUCTIONS TO VISIBILITY.

MTZ001>007-043-251100-
WEST OF THE DIVIDE

CITY           SKY/WX    TMP DP  RH WIND       PRES   REMARKS
KALISPELL      CLOUDY    44  44 100 CALM      29.95R
MISSOULA       CLEAR     39  36  89 MISG      29.99R
BUTTE          CLEAR     32  31  96 SE3       29.97S
MULLAN PASS    FOG       38  38 100 NW5       29.99S VSB 1/4
ANACONDA         N/A     37  36  93 CALM      29.96S
DEER LODGE       N/A     37  36  93 W3        29.98S
EUREKA           N/A     45  39  81 CALM      29.93S
HAMILTON         N/A     41  37  87 CALM      29.97R
LIBBY            N/A     39  37  93 CALM      29.96R
PLAINS           N/A     39  35  85 CALM      29.98
$$

MTZ008-052>055-251100-
SOUTHWEST MONTANA

CITY           SKY/WX    TMP DP  RH WIND       PRES   REMARKS
BOZEMAN        PTCLDY    38  35  89 CALM      29.94S
DILLON         CLOUDY    39  36  89 SE6       29.94F
ENNIS          CLOUDY    39  37  93 NW6       30.00S
TWIN BRIDGES     N/A     41  36  82 NE1       29.94
$$

MTZ009-010-012-014-046-048-049-054-251100-
EAST SLOPES AND CENTRAL MONTANA

CITY           SKY/WX    TMP DP  RH WIND       PRES   REMARKS
CUT BANK       PTCLDY    39  36  89 W9        29.87S
GREAT FALLS    CLEAR     38  35  89 SW8       29.90R
MALMSTROM AFB  CLEAR     39  37  92 S7        29.90R
HELENA         CLEAR     43  39  86 S5        29.93S
CHOTEAU          N/A     41  36  81 SW6       29.89S
CONRAD           N/A     36  36 100 SW2       29.90F
$$

MTZ011-013-016-021-045-047-050-051-251100-
NORTH CENTRAL MONTANA

CITY           SKY/WX    TMP DP  RH WIND       PRES   REMARKS
HAVRE            N/A    N/A N/A N/A MISG      29.87S
LEWISTOWN      CLEAR     37  33  85 SE5       29.91S
N BAR RANCH      N/A     36  32  87 W5        29.94R
CHINOOK          N/A     43  43 100 CALM      29.87F
$$

MTZ017>020-022>027-061-062-251100-
NORTHEAST MONTANA

CITY           SKY/WX    TMP DP  RH WIND       PRES   REMARKS
GLASGOW        CLOUDY    44  42  93 SE3       29.86F
JORDAN           N/A     43  41  93 NW3       29.87S
SIDNEY         CLOUDY    54  48  82 N10       29.85F
WOLF POINT     LGT RAIN  51  46  83 E3        29.88R
PLENTYWOOD       N/A     50  45  81 N5        29.90R
POPLAR           N/A     52  48  87 E6        29.89R
SCOBEY           N/A     38  29  70 W1        29.87
$$

MTZ028>42-056>058-251100-
SOUTHCENTRAL AND SOUTHEAST MONTANA

CITY           SKY/WX    TMP DP  RH WIND       PRES   REMARKS
BAKER          CLOUDY    52  46  80 NE10      29.82F
BILLINGS       MOCLDY    48  43  82 NW6       29.90S
LIVINGSTON     CLOUDY    40  36  86 W5        29.92S
MILES CITY     LGT RAIN  51  48  89 N6        29.87S
EKALAKA          N/A     47  44  89 W1        29.83S
FORSYTH          N/A     54  52  94 SW3       29.86S
$$

REGIONAL REPORTS...DAKOTAS

CITY           SKY/WX    TMP DP  RH WIND       PRES   REMARKS
WILLISTON      CLOUDY    55  43  63 NE12      29.87F
MINOT          LGT RAIN  57  53  86 N8        29.84F
DICKINSON      CLOUDY    50  48  93 NE8       29.80S
BEACH          CLOUDY    48  48 100 NE5       29.85F
CROSBY         LGT RAIN  48  48 100 NW7       29.91F
WATFORD CITY   LGT RAIN  52  52 100 N7        29.85F
BISMARCK       CLOUDY    58  56  93 SE5       29.84F
GRAND FORKS    CLOUDY    61  52  72 E7        29.85F
FARGO          CLOUDY    67  49  52 E13       29.82F
BUFFALO SD       N/A     49  46  90 S6        29.77R
RAPID CITY     CLOUDY    46  45  96 W7        29.84S
$$

REGIONAL REPORTS...WYOMING/IDAHO/WASHINGTON

CITY           SKY/WX    TMP DP  RH WIND       PRES   REMARKS
GILLETTE       CLOUDY    46  45  96 W3        29.88S
SHERIDAN       CLOUDY    48  45  89 NW3       29.91S
BUFFALO WY     MOCLDY    46  42  86 NW15G25   29.92R
CODY           CLOUDY    45  41  87 CALM      29.91S
YELLOWSTONE LA   N/A     33  31  92 CALM      30.01S
IDAHO FALLS    LGT RAIN  46  44  93 N3        29.97R
SALMON         CLOUDY    43  37  81 CALM      29.95R
BOISE          MOCLDY    53  41  63 CALM      29.93R
SPOKANE        MOCLDY    50  45  83 SE5       29.95R
$$

REGIONAL REPORTS...ALBERTA

CITY           SKY/WX    TMP DP  RH WIND       PRES   REMARKS
EDMONTON       PTCLDY    46  43  87 S8        29.82S
CALGARY        PTCLDY    43  41  93 S6        29.85S
LETHBRIDGE     PTCLDY    39  37  93 S10       29.85S
MEDICINE HAT   CLEAR     39  37  93 E5        29.87F
WATERTON GATE    N/A     48  37  66 SW20G29     N/A
CARDSTON         N/A     36  34  93 CALM        N/A
MILK RIVER       N/A     37  36  93 W5          N/A
$$

REGIONAL REPORTS...SASKATCHEWAN

CITY           SKY/WX    TMP DP  RH WIND       PRES   REMARKS
SWIFT CURRENT  FOG       45  45 100 W7        29.86S VSB 1
REGINA         PTCLDY    39  37  93 SE7       29.89R
SASKATOON      CLEAR     43  43 100 NE6       29.88F
CYPRESS HILLS    N/A     37  36  93 NW1         N/A
VAL MARIE        N/A     34  34 100 E3          N/A
ROCKGLEN         N/A     41  41 100 SW5         N/A
ASSINIBOIA       N/A     45  43  93 S5          N/A
$$



USA.gov is the U.S. government's official web portal to all federal, state and local government web resources and services.